Location: Bon Acre
(42.6442°N, 73.5758°W)
Time: 01:33:15
(UTC+00:00)

Cosmos 2112 Rocket - Pass Details

Date: 14 December 2025
Orbit: 752 x 783 km, 74.1° (Epoch: 17 January)

Event Time Altitude Azimuth Distance (km) Brightness Sun altitude
Rises 23:18:17 0° 344° (NNW) 3,224 7.3 -20.7°
Reaches altitude 10° 23:20:43 10° 349° (N) 2,299 6.4 -21.1°
Maximum altitude 23:25:49 53° 66° (ENE) 938 4.0 -22.0°
Enters shadow 23:26:07 52° 79° (E) 945 4.0 -22.1°
